Location: Newark
(49.5647°N, 8.2922°E)
Time: 09:13:57
(UTC+00:00)

Courier 1B Rocket - Visible Passes

Search period start: 17 February 2020 00:00
Search period end: 27 February 2020 00:00
Orbit: 920 x 1202 km, 28.2° (Epoch: 16 February)

Date Brightness Start Highest point End Pass type
(mag) Time Alt. Az. Time Alt. Az. Time Alt. Az.
17 Feb 7.2 04:29:11 10° SSW 04:31:41 12° S 04:34:13 10° SSE visible
18 Feb 7.3 03:31:49 12° S 03:31:49 12° S 03:33:28 10° SSE visible
19 Feb 7.2 04:21:35 10° SSW 04:22:24 10° S 04:23:13 10° S visible
